Flag for Montserrat Weather past 2 weeks in Brades, Montserrat

Now
81 °F

Passing clouds.


Feels Like: 85 °F
Forecast: 80 / 84 °F
Wind: 13 mph from East

Location: Vc Bird International Antigua Airport

Current Time: Jun 30, 2015 at 8:05:07 PM

Latest Report: Jun 30, 2015 at 7:00 PM


Visibility: N/A

Pressure: 30.07 "Hg

Humidity: 74%

Dew point: 72 °F

Location of BradesLocation

Historic Weather in Brades — Graph

°F

Brades temperature yesterday

Maximum temperature yesterday: 86 °F (at 12:00 PM)
Minimum temperature yesterday: 79 °F (at 8:00 AM)
Average temperature yesterday: 82 °F

Past Weeks' High & Low Weather Summary

 TemperatureHumidityPressure
High86 °F (Jun 16, 11:00 AM)94% (Jun 25, 9:00 PM)30.15 "Hg (Jun 25, 9:00 PM)
Low75 °F (Jun 22, 8:00 AM)55% (Jun 25, 9:00 AM)30.01 "Hg (Jun 16, 3:00 AM)
Average82 °F74%30.08 "Hg
* Reported Jun 15 7:00 PM — Jun 30 7:00 PM, Brades, Weather by CustomWeather, © 2015

Note: Actual official high and low records may vary slightly from our data, if they occured in-between our weather recording intervals... More about our weather records

Advertising

Brades weather history for previous 24 hours

 ConditionsComfort  
Time TempWeatherWind HumidityBarometerVisibility
7:00 PM
Tue, Jun 30
81 °FPassing clouds.13 mph74%30.07 "HgN/A
6:00 PM82 °FPartly sunny.14 mph70%30.07 "HgN/A
5:00 PM84 °FScattered clouds.14 mph66%30.07 "HgN/A
4:00 PM84 °FPartly sunny.13 mph66%30.07 "HgN/A
3:00 PM84 °FScattered clouds.15 mph66%30.07 "HgN/A
2:00 PM86 °FBroken clouds.13 mph66%30.07 "HgN/A
1:00 PM84 °FBroken clouds.13 mph74%30.07 "HgN/A
12:00 PM84 °FSprinkles. Partly sunny.14 mph74%30.09 "HgN/A
11:00 AM82 °FSprinkles. Broken clouds.13 mph74%30.09 "HgN/A
10:00 AM82 °FPartly sunny.14 mph74%30.09 "HgN/A
9:00 AM82 °FScattered clouds.16 mph74%30.09 "HgN/A
8:00 AM82 °FPartly sunny.15 mph70%30.09 "HgN/A
7:00 AM81 °FScattered clouds.15 mph74%30.07 "HgN/A
6:00 AM81 °FPassing clouds.13 mph74%30.04 "HgN/A
5:00 AM81 °FPassing clouds.14 mph74%30.04 "HgN/A
4:00 AM79 °FPassing clouds.13 mph79%30.04 "HgN/A
3:00 AM81 °FPartly cloudy.15 mph79%30.04 "HgN/A
2:00 AM81 °FScattered showers. Partly cloudy.17 mph74%30.04 "HgN/A
1:00 AM81 °FScattered showers. Passing clouds.16 mph79%30.07 "HgN/A
12:00 AM81 °FPassing clouds.16 mph74%30.07 "HgN/A
11:00 PM
Mon, Jun 29
81 °FPassing clouds.15 mph74%30.09 "HgN/A
10:00 PM79 °FPassing clouds.18 mph79%30.09 "HgN/A
9:00 PM81 °FPassing clouds.16 mph74%30.09 "HgN/A
8:00 PM81 °FPassing clouds.14 mph74%30.07 "HgN/A
Weather by CustomWeather, © 2015

See weather overviewHow to use our weather pages